[[{"header":{"parameterUnit":"m.s-1","parameterCategory":1,"la1":30.2991,"la2":30.254,"lo1":-89.0895,"lo2":-89.0444,"dy":0.0017,"dx":0.0017,"nx":28,"ny":28,"refTime":"2024-09-30T03:00:00:Z","depth":0,"parameterNumber":2,"parameterNumberName":"U-component_of_WINDS"},"data":[0,0,0,0,0,0,0,0,0,0,0,0,0,0,0,0,0,0,0,0,0,0,0,0,0,0,0,0,0,0,0,0,0,0,0,0,0,0,0,0,0,0,0,0,0,0,0,0,0,0,0,0,0,0,0,0,0,0,2.2624,2.2625,0,2.2758,2.2759,2.2761,2.2759,2.2757,2.2755,2.2754,2.2894,2.2899,2.2904,0,0,0,0,0,0,0,0,0,0,0,0,0,2.2371,2.2375,2.2624,2.2625,2.2627,2.2757,2.2759,2.2761,2.2759,2.2757,2.2755,2.2753,2.2892,2.2898,2.2905,0,0,0,0,0,0,0,0,0,0,0,0,0,2.249,2.2377,2.2623,2.2642,2.2645,2.2757,2.2759,2.2761,2.276,2.2757,2.2754,2.2752,2.289,2.2897,2.2905,2.3009,0,0,2.293,2.2934,0,0,0,0,0,0,0,0,2.2483,2.2499,2.2638,2.2641,2.2644,2.2739,2.2721,2.2845,2.276,2.2716,2.2754,2.2751,2.2844,2.2856,2.2887,2.3015,2.3021,2.2931,2.2936,2.2939,2.2941,0,0,0,0,0,0,0,2.2475,2.2494,2.2677,2.264,2.2644,2.2645,2.2659,2.2745,2.2794,2.272,2.272,2.2736,2.2846,2.2879,2.289,2.3023,2.2931,2.2938,2.2943,2.2946,2.3245,2.3248,0,0,0,0,0,0,2.2463,2.2487,2.2672,2.2681,2.2556,2.2651,2.2667,2.2711,2.2793,2.2803,2.2738,2.2735,2.2867,2.2881,2.2895,2.3022,2.2939,2.2947,2.2951,2.3242,2.3246,2.3249,0,0,0,0,0,0,2.2457,2.2479,2.2667,2.2584,2.2608,2.2659,2.2708,2.2715,2.2749,2.2806,2.2815,2.2763,2.2865,2.2884,2.2981,2.3027,2.295,2.2958,2.3238,2.3243,2.3247,2.3276,0,0,0,0,0,0,2.245,2.2477,2.2516,2.2585,2.2612,2.2749,2.2711,2.272,2.2762,2.276,2.2832,2.2842,2.2865,2.2969,2.2989,2.3036,2.2964,2.3234,2.324,2.3246,2.3271,2.3281,2.3289,0,0,0,0,0,2.2441,2.2519,2.2518,2.254,2.2662,2.2752,2.2768,2.2792,2.2766,2.2806,2.2843,2.2839,2.3019,2.2979,2.3001,2.3052,2.3231,2.3239,2.3245,2.3267,2.3279,2.3289,0,0,0,0,0,0,2.2455,2.2528,2.2528,2.263,2.2685,2.2751,2.2802,2.2803,2.2867,2.2862,2.289,2.2907,2.3004,2.3038,2.2992,2.3157,2.3122,2.3134,2.3131,2.3143,2.3152,2.3141,2.2971,0,0,0,0,0,2.2469,2.2535,2.2597,2.2681,2.2709,2.2751,2.2791,2.2805,2.2863,2.2886,2.293,2.2988,2.3057,2.3102,2.3169,2.3277,2.3293,2.3323,2.3332,2.334,2.3349,2.3409,2.3424,2.3272,2.3272,2.3272,0,0,2.2501,2.2549,2.2589,2.2686,2.2729,2.2798,2.277,2.2844,2.2896,2.2898,2.2991,2.3026,2.3092,2.3195,2.3242,2.3226,2.3395,2.3348,2.3354,2.336,2.3418,2.3432,2.3445,2.3277,2.3276,2.3275,0,0,2.2593,2.2636,2.2712,2.2757,2.2823,2.2851,2.2869,2.2936,2.2959,2.3054,2.3057,2.312,2.3239,2.3285,2.3325,2.3437,2.3436,2.3459,2.3506,2.3565,2.3577,2.3587,2.3628,2.3642,2.3468,2.3469,2.3469,0,2.2624,2.2726,2.2751,2.2825,2.2867,2.2872,2.295,2.2992,2.3078,2.3108,2.3089,2.3239,2.3283,2.3397,2.3425,2.3457,2.3479,2.345,2.3573,2.3584,2.3594,2.3633,2.3648,2.3471,2.3471,2.347,2.347,0,2.2761,2.2833,2.2886,2.2967,2.3017,2.3092,2.3129,2.3176,2.3186,2.3217,2.3314,2.3368,2.3446,2.3475,2.3486,2.3592,2.358,2.3567,2.3532,2.3611,2.3647,2.3662,2.3474,2.3473,2.3472,2.3472,0,0,2.2864,2.2959,2.2978,2.3016,2.3091,2.3147,2.3224,2.33,2.3339,2.3399,2.3464,2.3566,2.3555,2.36,2.3616,2.3668,2.3754,2.3649,2.3651,2.3666,2.3874,2.3882,2.3899,2.3754,2.3757,2.376,2.3868,0,2.2963,2.3098,2.3123,2.3241,2.3307,2.3314,2.3381,2.3435,2.3466,2.3529,2.3564,2.3635,2.3615,2.3642,2.3693,2.3732,2.3796,2.3725,2.3816,2.3819,2.3798,2.3918,2.3927,2.4027,2.3883,2.3885,2.3887,0,2.3097,2.3159,2.3283,2.335,2.3379,2.3439,2.3511,2.357,2.3633,2.3652,2.3703,2.3714,2.3796,2.3758,2.3872,2.3823,2.3862,2.3887,2.3892,2.39,2.3857,2.3929,2.4059,2.4074,2.391,2.3908,2.3907,0,2.3159,2.3274,2.3363,2.3395,2.3476,2.3518,2.3553,2.3613,2.3657,2.3722,2.3751,2.3824,2.3864,2.3921,2.3953,2.3923,2.4064,2.4029,2.4083,2.4082,2.4111,2.4108,2.4248,2.4138,2.4138,2.4137,2.4137,0,2.3267,2.3342,2.3392,2.3447,2.3532,2.3562,2.3646,2.3681,2.3735,2.3798,2.3809,2.3868,2.3907,2.3972,2.3998,2.4088,2.4106,2.4124,2.413,2.4123,2.412,2.4148,2.4141,2.4142,2.4141,2.414,2.4139,0,2.3349,2.3386,2.3483,2.3552,2.3571,2.3631,2.369,2.3745,2.3777,2.3856,2.3877,2.3927,2.4005,2.4042,2.4139,2.4156,2.4258,2.426,2.4236,2.4238,2.429,2.4284,2.4451,2.4475,2.435,2.4351,2.4352,0,2.3415,2.3473,2.3548,2.3591,2.3627,2.3696,2.3741,2.3773,2.3821,2.3897,2.3942,2.402,2.4084,2.4208,2.4254,2.4328,2.4331,2.4385,2.4342,2.4333,2.4331,2.4327,2.4333,2.4392,2.4393,2.4394,2.4395,0,2.3528,2.3543,2.3608,2.368,2.3734,2.3792,2.3849,2.3884,2.3925,2.3978,2.4057,2.4107,2.4205,2.4283,2.436,2.4399,2.4404,2.4408,2.4424,2.4417,2.44,2.441,2.4256,2.4404,2.4403,2.4402,2.4402,2.4401,2.3603,2.3656,2.3717,2.3789,2.3836,2.3889,2.3944,2.3983,2.4049,2.4131,2.4147,2.423,2.4293,2.4398,2.4439,2.4507,2.4495,2.4518,2.4524,2.4529,2.4532,2.4391,2.4521,2.4521,2.4521,2.4521,2.452,0,2.3716,2.3756,2.3822,2.3902,2.396,2.396,2.4024,2.4072,2.4145,2.4203,2.4265,2.4357,2.4433,2.4485,2.4563,2.4606,2.4611,2.4625,2.4622,2.4631,2.4538,2.4516,2.4621,2.4621,2.462,2.462,2.462,2.462,2.3782,2.387,2.3893,2.4006,2.4046,2.4127,2.4164,2.4214,2.4261,2.4362,2.4424,2.4458,2.4515,2.4596,2.4666,2.468,2.4708,2.4723,2.4736,2.4648,2.4637,2.4627,2.4607,2.4729,2.4729,2.4824,2.4824,2.4825]},{"header":{"parameterUnit":"m.s-1","parameterCategory":1,"la1":30.2991,"la2":30.254,"lo1":-89.0895,"lo2":-89.0444,"dy":0.0017,"dx":0.0017,"nx":28,"ny":28,"refTime":"2024-09-30T03:00:00:Z","depth":0,"parameterNumber":3,"parameterNumberName":"V-component_of_WINDS"},"data":[0,0,0,0,0,0,0,0,0,0,0,0,0,0,0,0,0,0,0,0,0,0,0,0,0,0,0,0,0,0,0,0,0,0,0,0,0,0,0,0,0,0,0,0,0,0,0,0,0,0,0,0,0,0,0,0,0,0,1.7746,1.7748,0,1.785,1.7851,1.7852,1.7841,1.7839,1.7837,1.7836,1.794,1.7944,1.7948,0,0,0,0,0,0,0,0,0,0,0,0,0,1.7538,1.7542,1.7746,1.7748,1.7749,1.7849,1.7851,1.7852,1.7841,1.7839,1.7837,1.7835,1.7938,1.7943,1.7949,0,0,0,0,0,0,0,0,0,0,0,0,0,1.7634,1.7543,1.7746,1.7755,1.7757,1.7849,1.7851,1.7853,1.7841,1.7839,1.7836,1.7834,1.7937,1.7943,1.7949,1.8038,0,0,1.7969,1.7972,0,0,0,0,0,0,0,0,1.7628,1.7641,1.7753,1.7755,1.7757,1.783,1.7815,1.7915,1.7842,1.7809,1.7836,1.7833,1.7905,1.7914,1.7939,1.8043,1.8047,1.7969,1.7973,1.7976,1.7978,0,0,0,0,0,0,0,1.7622,1.7637,1.7787,1.7754,1.7757,1.7754,1.7765,1.7834,1.787,1.7812,1.7811,1.7824,1.7906,1.7932,1.7941,1.8049,1.7969,1.7975,1.7979,1.7981,1.8231,1.8233,0,0,0,0,0,0,1.7613,1.7631,1.7784,1.779,1.7685,1.776,1.7772,1.7809,1.7869,1.7876,1.7826,1.7823,1.7923,1.7933,1.7945,1.8052,1.7976,1.7982,1.7986,1.8228,1.8231,1.8234,0,0,0,0,0,0,1.7608,1.7627,1.778,1.7711,1.773,1.7766,1.7808,1.7812,1.7839,1.7879,1.7885,1.7847,1.7921,1.7935,1.8015,1.8056,1.7985,1.7991,1.8225,1.8229,1.8233,1.8269,0,0,0,0,0,0,1.7603,1.7625,1.766,1.7712,1.7734,1.7849,1.781,1.7816,1.785,1.7847,1.7901,1.7907,1.792,1.8005,1.8021,1.8063,1.7996,1.8221,1.8226,1.8231,1.8264,1.8274,1.8282,0,0,0,0,0,1.7595,1.7665,1.7661,1.768,1.7778,1.7851,1.7864,1.7878,1.7854,1.7888,1.7914,1.7905,1.8049,1.8014,1.8031,1.8076,1.8219,1.8225,1.8231,1.826,1.8272,1.8282,0,0,0,0,0,0,1.7617,1.7672,1.7669,1.7758,1.78,1.7849,1.7894,1.789,1.794,1.7935,1.795,1.7963,1.8043,1.8067,1.8027,1.8165,1.813,1.814,1.8146,1.8158,1.8166,1.8159,1.8001,0,0,0,0,0,1.7632,1.7688,1.7733,1.7807,1.7829,1.7858,1.789,1.7898,1.7942,1.796,1.7991,1.8034,1.8089,1.8124,1.8177,1.8267,1.8279,1.8307,1.8316,1.8323,1.8331,1.8381,1.8394,1.8255,1.8254,1.8254,0,0,1.7664,1.7701,1.7735,1.7812,1.7846,1.7903,1.7873,1.7934,1.7977,1.7969,1.8046,1.8071,1.8119,1.8205,1.8244,1.8227,1.8372,1.8331,1.8336,1.8341,1.8389,1.8402,1.8414,1.8259,1.8258,1.8257,0,0,1.7751,1.7785,1.785,1.7885,1.7936,1.7955,1.7971,1.8021,1.8037,1.8115,1.811,1.816,1.8254,1.8289,1.8319,1.8419,1.8413,1.8436,1.8482,1.8531,1.8542,1.8552,1.8588,1.86,1.8444,1.8444,1.8445,0,1.7784,1.787,1.7884,1.7947,1.7981,1.7977,1.8043,1.8076,1.8142,1.8165,1.8146,1.8264,1.8296,1.839,1.8414,1.8438,1.8457,1.843,1.8539,1.8549,1.8558,1.8593,1.8606,1.8447,1.8447,1.8446,1.8446,0,1.7908,1.7968,1.8015,1.8079,1.8119,1.8183,1.8206,1.8244,1.8248,1.8268,1.8347,1.8386,1.8447,1.8469,1.8473,1.8563,1.8552,1.8536,1.8501,1.8574,1.8607,1.862,1.845,1.845,1.8449,1.8448,0,0,1.8012,1.8084,1.8101,1.813,1.8187,1.8233,1.8296,1.8356,1.8388,1.8434,1.8487,1.8567,1.8552,1.8586,1.8594,1.8637,1.8714,1.8615,1.8617,1.8633,1.8816,1.8828,1.8843,1.871,1.8712,1.8714,1.8812,0,1.8105,1.8219,1.8234,1.8334,1.839,1.8386,1.8442,1.8482,1.8503,1.8552,1.8575,1.8631,1.8608,1.8628,1.867,1.8696,1.8751,1.8689,1.8759,1.8762,1.8748,1.886,1.8873,1.8963,1.8824,1.8827,1.8828,0,1.8229,1.8279,1.8385,1.8434,1.8458,1.8508,1.8564,1.8611,1.8657,1.8669,1.8707,1.8709,1.8775,1.8737,1.8827,1.8784,1.8814,1.8831,1.8835,1.8842,1.88,1.8871,1.8992,1.9006,1.8848,1.8847,1.8845,0,1.8295,1.8388,1.8464,1.8489,1.8548,1.8583,1.8609,1.8652,1.8687,1.8736,1.8758,1.8813,1.8844,1.8886,1.8903,1.8874,1.8992,1.8956,1.9004,1.9004,1.903,1.9028,1.9158,1.9048,1.9047,1.9047,1.9047,0,1.8398,1.8463,1.8495,1.8541,1.8614,1.863,1.8701,1.8726,1.8764,1.8815,1.8815,1.8863,1.8882,1.8933,1.8946,1.9019,1.9032,1.9044,1.9047,1.9044,1.9043,1.9064,1.9059,1.9051,1.905,1.9049,1.9049,0,1.8484,1.8508,1.859,1.8639,1.8653,1.8705,1.8747,1.8791,1.8811,1.8876,1.8892,1.8923,1.8983,1.9004,1.9076,1.9085,1.917,1.9167,1.9155,1.9155,1.9202,1.9198,1.9351,1.9372,1.9248,1.9249,1.925,0,1.8548,1.8599,1.8654,1.8688,1.8716,1.8771,1.8807,1.8824,1.8861,1.8917,1.8955,1.9014,1.9063,1.9158,1.9187,1.9242,1.9241,1.929,1.9249,1.9245,1.9242,1.9239,1.9244,1.9298,1.93,1.9301,1.9302,0,1.866,1.867,1.8722,1.8778,1.8821,1.8866,1.891,1.8938,1.8961,1.9003,1.9064,1.9102,1.9176,1.9234,1.9291,1.9317,1.9313,1.9314,1.9329,1.9327,1.9318,1.9324,1.9176,1.9311,1.931,1.9309,1.9309,1.9308,1.8738,1.8783,1.8828,1.8886,1.8921,1.8962,1.9007,1.9032,1.9084,1.9146,1.9153,1.9219,1.9263,1.9338,1.9367,1.9418,1.9404,1.9425,1.943,1.9435,1.9439,1.9309,1.9428,1.9428,1.9428,1.9427,1.9427,0,1.885,1.888,1.8933,1.8994,1.904,1.9033,1.9081,1.9119,1.9177,1.9219,1.9267,1.9337,1.9394,1.9427,1.9485,1.9519,1.9519,1.9534,1.9532,1.9538,1.9447,1.943,1.9533,1.9533,1.9533,1.9533,1.9533,1.9533,1.8914,1.899,1.9004,1.9097,1.9125,1.9191,1.9219,1.9256,1.9289,1.9368,1.9416,1.9437,1.9476,1.9535,1.9587,1.9595,1.9617,1.9633,1.964,1.9555,1.9544,1.9534,1.9517,1.9637,1.9637,1.9726,1.9727,1.9727]}]]